FW7079 Weather Reports


time (UTC)temp
C
wind
direction
speed
KPH
gust
KPH
rain 1hr
cm
rain 24hr
cm
rain mn
cm
humidity
%
barometer
mb
20260506004550 10 303 0.0 4.8 0.00 0.00 0.00 81 1011.1
20260506003049 10 12 0.0 4.8 0.00 0.00 0.00 80 1011.0
20260506001602 10 0 0.0 8.0 0.00 0.00 0.00 80 1010.9
20260506000119 10 324 0.0 6.4 0.00 0.00 0.00 79 1010.8
20260505234552 10 259 1.6 9.7 0.00 0.00 0.00 78 1010.9
20260505233053 11 0 0.0 6.4 0.00 0.00 0.00 77 1011.4
20260505231558 11 0 1.6 3.2 0.00 0.00 0.00 76 1010.8
20260505230052 11 223 0.0 11.3 0.00 0.00 0.00 76 1010.5
20260505224554 11 0 0.0 6.4 0.00 0.00 0.00 76 1010.4
20260505223053 11 202 1.6 4.8 0.00 0.00 0.00 77 1010.4
20260505221557 11 288 1.6 6.4 0.00 0.00 0.00 77 1010.0
20260505220106 12 242 1.6 14.5 0.00 0.00 0.00 76 1010.0
20260505214602 12 0 1.6 8.0 0.00 0.00 0.00 76 1009.3
20260505213053 12 158 1.6 6.4 0.00 0.00 0.00 76 1009.4
20260505211631 12 304 1.6 4.8 0.00 0.00 0.00 76 1008.7
20260505210054 12 223 1.6 6.4 0.00 0.00 0.00 77 1008.8
20260505204610 12 274 0.0 3.2 0.00 0.00 0.00 76 1010.0
20260505203052 12 259 1.6 9.7 0.00 0.00 0.00 76 1009.1
20260505201552 12 282 1.6 8.0 0.00 0.00 0.00 75 1008.8
20260505200051 12 0 0.0 8.0 0.00 0.00 0.00 78 1009.0
20260505194549 12 207 1.6 9.7 0.00 0.00 0.00 79 1009.0
20260505193052 12 259 3.2 6.4 0.00 0.00 0.00 80 1008.9
20260505191552 12 275 1.6 6.4 0.00 0.00 0.00 80 1008.6
20260505190050 13 247 1.6 6.4 0.00 0.00 0.00 80 1008.7
20260505184552 13 44 1.6 11.3 0.00 0.00 0.00 80 1008.4
20260505183051 13 259 0.0 4.8 0.00 0.00 0.00 80 1008.3
20260505181639 13 240 1.6 11.3 0.00 0.00 0.00 80 1007.8
20260505174553 13 46 1.6 9.7 0.00 0.00 0.00 81 1007.5
20260505173053 13 283 1.6 8.0 0.00 0.00 0.00 82 1007.3
20260505171559 13 11 0.0 3.2 0.00 0.00 0.00 82 1007.3
20260505170054 13 223 1.6 8.0 0.00 0.00 0.00 81 1007.0
20260505164551 13 0 0.0 9.7 0.00 0.00 0.00 83 1006.6
20260505163052 14 0 1.6 9.7 0.00 0.00 0.00 82 1006.1
20260505161553 15 348 1.6 12.9 0.00 0.00 0.00 82 1005.6
20260505153056 18 0 0.0 9.7 0.00 0.00 0.00 80 1004.1
20260505151551 20 320 0.0 11.3 0.00 0.00 0.00 83 1003.6
20260505124554 18 207 0.0 1.6 0.00 0.00 0.00 88 1001.9
20260505123059 18 0 0.0 1.6 0.00 0.00 0.00 87 1002.0
20260505121557 18 0 0.0 0.0 0.00 0.00 0.00 87 1001.6
20260505120111 18 0 0.0 0.0 0.00 0.00 0.00 86 1001.6
20260505114554 18 0 0.0 0.0 0.00 0.00 0.00 85 1001.2
20260505113052 19 0 0.0 0.0 0.00 0.00 0.00 84 1000.7
20260505111552 20 0 0.0 0.0 0.00 0.00 0.00 82 1000.6
20260505110112 20 0 0.0 0.0 0.00 0.00 0.00 80 1000.1
20260505101602 21 144 3.2 12.9 0.00 0.00 0.00 77 999.1
20260505100057 21 126 0.0 9.7 0.00 0.00 0.00 77 999.0
20260505094553 21 132 3.2 12.9 0.00 0.00 0.00 77 999.1
20260505093053 22 136 3.2 12.9 0.00 0.00 0.00 77 998.9
20260505091557 21 144 1.6 11.3 0.00 0.00 0.00 77 999.2
20260505090057 21 132 1.6 11.3 0.00 0.00 0.00 77 999.1
20260505084602 21 124 1.6 9.7 0.00 0.00 0.00 77 999.3
20260505083105 21 158 3.2 14.5 0.00 0.00 0.00 78 999.3
20260505081551 21 142 1.6 11.3 0.00 0.00 0.00 77 999.6
20260505080054 21 175 3.2 14.5 0.00 0.00 0.00 77 999.7
20260505074554 21 132 1.6 9.7 0.00 0.00 0.00 77 999.8
20260505073059 21 142 4.8 14.5 0.00 0.00 0.00 77 1000.0
20260505071555 21 126 3.2 11.3 0.00 0.00 0.00 77 1000.3
20260505070053 21 131 3.2 8.0 0.00 0.00 0.00 77 1000.6
20260505064625 22 132 1.6 16.1 0.00 0.00 0.00 76 1000.7
20260505063053 21 97 3.2 11.3 0.00 0.00 0.00 76 1000.9
20260505061552 21 132 1.6 9.7 0.00 0.00 0.00 76 1001.1
20260505060058 21 159 1.6 9.7 0.00 0.00 0.00 76 1001.2
20260505054558 21 78 3.2 9.7 0.00 0.00 0.00 76 1001.5
20260505053057 22 121 1.6 11.3 0.00 0.00 0.00 75 1001.6
20260505051555 22 39 1.6 9.7 0.00 0.00 0.00 75 1001.7
20260505041603 22 209 3.2 16.1 0.00 0.00 0.00 72 1002.3
20260505034606 23 121 3.2 11.3 0.00 0.00 0.00 72 1002.3
20260505033055 23 132 4.8 14.5 0.00 0.00 0.00 71 1002.3
20260505031552 23 105 1.6 14.5 0.00 0.00 0.00 70 1002.2
20260505030101 23 98 3.2 17.7 0.00 0.00 0.00 70 1002.0
20260505024608 23 132 3.2 12.9 0.00 0.00 0.00 69 1002.0
20260505023054 24 39 4.8 11.3 0.00 0.00 0.00 68 1001.8
20260505021550 24 202 3.2 11.3 0.00 0.00 0.00 68 1001.5
20260505020104 24 105 3.2 12.9 0.00 0.00 0.00 68 1001.7
20260505014551 24 132 3.2 9.7 0.00 0.00 0.00 67 1001.7
20260505013054 24 44 3.2 11.3 0.00 0.00 0.00 67 1001.6
20260505011556 25 126 3.2 8.0 0.00 0.00 0.00 66 1001.7
20260505010110 25 132 3.2 11.3 0.00 0.00 0.00 66 1001.8